Home > Weather > Taiyuan > Past weeks

Flag for China Weather for the Past 2 Weeks in Taiyuan, Shanxi, China

Now
32 °F

Clear.


Feels Like: 22 °F
Forecast: 13 / 37 °F
Wind: 13 mph from Northwest

Location: Taiyuan Airport

Current Time: Feb 6, 2016 at 6:22:09 PM

Latest Report: Feb 6, 2016 at 6:00 PM


Visibility: 10 mi

Pressure: 30.30 "Hg (27.45 "Hg at 790m altitude)

Humidity: 10%

Dew point: -18 °F

Location of TaiyuanLocation

Historic Weather in Taiyuan — Graph

°F

Taiyuan Temperature Yesterday

Maximum temperature yesterday: 30 °F (at 12:00 AM)
Minimum temperature yesterday: 21 °F (at 3:30 AM)
Average temperature yesterday: 25 °F

High & Low Weather Summary for the Past Weeks

 TemperatureHumidityPressure
High41 °F (Feb 4, 1:00 PM)86% (Jan 30, 3:00 PM)30.80 "Hg (Jan 30, 3:00 PM)
Low-2 °F (Jan 24, 3:00 AM)10% (Jan 27, 3:00 PM)30.09 "Hg (Jan 27, 2:30 PM)
Average19 °F33%30.39 "Hg
* Reported Jan 22 5:00 PM — Feb 6 5:00 PM, Taiyuan, Weather by CustomWeather, © 2016

Note: Actual official high and low records may vary slightly from our data, if they occured in-between our weather recording intervals... More about our weather records

Advertising

Taiyuan Weather History for the Previous 24 Hours

 ConditionsComfort  
Time TempWeatherWind HumidityBarometerVisibility
5:00 PM
Sat, Feb 6
36 °FPassing clouds.6 mph14%30.27 "HgN/A
4:30 PM37 °FPassing clouds.6 mph13%30.30 "HgN/A
4:00 PM37 °FPassing clouds.6 mph13%30.30 "HgN/A
3:30 PM37 °FPassing clouds.8 mph13%30.30 "HgN/A
3:00 PM37 °FPassing clouds.8 mph13%30.30 "HgN/A
2:30 PM36 °FPassing clouds.8 mph14%30.33 "HgN/A
2:00 PM36 °FPassing clouds.6 mph14%30.33 "HgN/A
1:30 PM34 °FPassing clouds.8 mph15%30.36 "HgN/A
1:00 PM34 °FPassing clouds.6 mph16%30.36 "HgN/A
12:00 PM30 °FPassing clouds.6 mph22%30.42 "HgN/A
11:30 AM28 °FPassing clouds.6 mph26%30.45 "HgN/A
10:30 AM25 °FPassing clouds.3 mph33%30.45 "HgN/A
10:00 AM23 °FPassing clouds.3 mph33%30.45 "HgN/A
9:00 AM19 °FSunny.1 mph35%30.45 "Hg10 mi
8:30 AM16 °FSunny.1 mph45%30.45 "Hg10 mi
8:00 AM12 °FSunny.1 mph44%30.45 "Hg10 mi
7:30 AM10 °FPassing clouds.3 mph47%30.42 "HgN/A
7:00 AM10 °FClear.1 mph47%30.42 "Hg10 mi
6:30 AM10 °FClear.3 mph47%30.42 "Hg10 mi
6:00 AM10 °FClear.1 mph44%30.42 "Hg10 mi
5:30 AM9 °FClear.6 mph47%30.42 "Hg10 mi
5:00 AM10 °FClear.1 mph44%30.42 "Hg10 mi
4:30 AM10 °FClear.3 mph44%30.42 "Hg4 mi
4:00 AM9 °FClear.3 mph47%30.42 "Hg4 mi
3:30 AM10 °FClear.1 mph40%30.42 "Hg4 mi
3:00 AM12 °FClear.1 mph40%30.42 "Hg4 mi
2:30 AM14 °FClear.3 mph37%30.45 "Hg4 mi
2:00 AM14 °FClear.3 mph41%30.45 "Hg4 mi
1:30 AM16 °FClear.1 mph34%30.45 "Hg10 mi
1:00 AM19 °FPassing clouds.3 mph29%30.45 "HgN/A
12:30 AM23 °FClear.6 mph25%30.45 "Hg10 mi
12:00 AM23 °FClear.6 mph25%30.48 "Hg10 mi
11:30 PM
Fri, Feb 5
23 °FPassing clouds.3 mph23%30.48 "HgN/A
11:00 PM23 °FPassing clouds.3 mph23%30.48 "HgN/A
10:30 PM25 °FClear.6 mph21%30.48 "Hg10 mi
10:00 PM25 °FPassing clouds.6 mph21%30.48 "HgN/A
9:30 PM25 °FClear.8 mph21%30.48 "Hg10 mi
9:00 PM25 °FClear.8 mph21%30.48 "Hg10 mi
8:30 PM25 °FClear.8 mph21%30.45 "Hg10 mi
8:00 PM25 °FClear.10 mph21%30.45 "Hg10 mi
7:30 PM25 °FPassing clouds.8 mph21%30.45 "HgN/A
7:00 PM25 °FClear.15 mph21%30.45 "Hg10 mi
6:30 PM25 °FClear.15 mph21%30.42 "Hg10 mi
6:00 PM27 °FClear.10 mph20%30.42 "Hg10 mi
Weather by CustomWeather, © 2016

See weather overviewHow to use our weather pages